Regional Weather Roundup
Issued by NWS Jackson, KY

Home | Current Version | Previous Version | Graphics & Text | Print | Product List | Glossary On
Versions: 1 2 3 4 5 6 7 8 9 10 11 12 13 14 15 16 17 18 19 20 21 22 23 24 25 26 27
000
ASUS43 KJKL 130010
RWRJKL

EAST KENTUCKY HOURLY WEATHER ROUNDUP
NATIONAL WEATHER SERVICE JACKSON KY
700 PM EST TUE DEC 12 2017

NOTE: "FAIR" INDICATES FEW OR NO CLOUDS BELOW 12,000 FEET WITH
NO SIGNIFICANT WEATHER AND/OR OBSTRUCTIONS TO VISIBILITY.

* THESE REPORTS ARE NOT UNDER NWS QUALITY CONTROL AND MAY NOT
  REPORT WEATHER SUCH AS PRECIPITATION AND FOG.

KYZ079-080-083-085-087-088-110-112-115-119-120-130100
...EASTERN KENTUCKY...

CITY           SKY/WX    TMP DP  RH WIND       PRES   REMARKS
JACKSON        PTCLDY    26   7  44 W9G21     29.94R WCI  17
6HR MIN TEMP:  26; 6HR MAX TEMP:  36; 6HR PCP: TRACE;

LONDON         CLEAR     27   5  39 W10       29.99R WCI  17
6HR MIN TEMP:  27; 6HR MAX TEMP:  36;

SOMERSET*      CLEAR     28   3  34 NW8G16    30.05R WCI  20
MONTICELLO*    CLEAR     29   9  43 NW13      30.06R WCI  19
6HR MIN TEMP:  29; 6HR MAX TEMP:  38;

WILLIAMSBURG*  CLEAR     28   1  31 NW7       30.00R WCI  21
MIDDLESBORO*   CLEAR     30   1  29 NW15G28   29.98R WCI  19
6HR MIN TEMP:  30; 6HR MAX TEMP:  37;

HARLAN APT*    CLEAR     30   5  34 W15       29.94R WCI  19
PIKE CO APT*   MOCLDY    26   7  44 W15       29.91R WCI  13
BIG SANDY APT* CLOUDY    27  13  57 NW7       29.94R WCI  19
6HR MIN TEMP:  27; 6HR MAX TEMP:  34;

MOREHEAD APT*  MOCLDY    25   7  46 NW13      29.99R WCI  13
$$

KYZ035-036-041-042-044-050-067-078-099-130100
...CENTRAL KENTUCKY...

CITY           SKY/WX    TMP DP  RH WIND       PRES   REMARKS
MT STERLING*   CLEAR     27  10  50 NW7       30.00R WCI  19
FLEMING/MASON* PTCLDY    23   7  49 NW13G21   30.00R WCI  12
DANVILLE*      CLEAR     27   7  43 NW7       30.03R WCI  19
LEXINGTON      CLEAR     25   7  46 W12       30.01R WCI  14
6HR MIN TEMP:  25; 6HR MAX TEMP:  35;

FRANKFORT      CLEAR     27   5  39 W9        30.02R WCI  18
6HR MIN TEMP:  26; 6HR MAX TEMP:  34;

LOUISVILLE     CLEAR     28   7  41 W12       30.07R WCI  18
6HR MIN TEMP:  27; 6HR MAX TEMP:  36;

LEBANON*         N/A     25   5  42 W7        30.05R WCI  17
GLASGOW*       CLEAR     29  10  45 NW3       30.08S
BOWLING GREEN  CLEAR     31   9  39 NW7       30.10R WCI  24
6HR MIN TEMP:  31; 6HR MAX TEMP:  40;

$$

KYZ091>093-OHZ055-061-077-WVZ005-015-034-035-042-130100
...SOUTHERN OHIO/WEST VIRGINIA...

CITY           SKY/WX    TMP DP  RH WIND       PRES   REMARKS
COVINGTON      MOCLDY    24   9  52 W14       29.99R WCI  12
COLUMBUS       MOCLDY    22  15  75 NW9       29.92R WCI  12
DAYTON         PTCLDY    20  11  68 NW15      29.97R WCI   6
WILMINGTON     CLOUDY    22  12  65 NW15      29.95R WCI   9
HUNTINGTON     CLOUDY    24  16  71 NW7       29.96R WCI  16
CHARLESTON     FLURRIES  24  15  68 W10G22    29.92R WCI  14
PINEVILLE*     FLURRIES  24  19  81 MISG      29.90R
BECKLEY        CLOUDY    19   9  65 NW12G28   29.78R WCI   7
BLUEFIELD      CLOUDY    18  10  71 NW16G30   29.76R WCI   3
LOGAN CO APT*  CLOUDY    23  16  74 N14G23    29.88R WCI  11
$$

VAZ002-007-008-TNZ017-027-036-066-071-130100
...SOUTHWEST VIRGINIA/EAST TENNESSEE...

CITY           SKY/WX    TMP DP  RH WIND       PRES   REMARKS
WISE*          MOCLDY    25  12  58 W12G24    29.84R WCI  14
JONESVILLE*    MOCLDY    32   9  37 NW12G17   29.95R WCI  23
ABINGDON*      CLOUDY    29  17  61 NW17      29.83R WCI  17
BRISTOL        CLOUDY    32  15  49 W12G22    29.87R WCI  23
MORRISTOWN*    CLOUDY    34  14  44 NW9G17    29.93R WCI  26
SEVIERVILLE*   MOCLDY    34  18  51 W7        29.97R WCI  28
KNOXVILLE      PTCLDY    34  20  56 W9        29.98R WCI  27
LAFOLLETTE*    CLEAR     32   7  34 N7        30.01R WCI  26
OAK RIDGE      CLEAR     35  14  42 W7        30.00R WCI  29
CROSSVILLE     CLEAR     29  11  47 W10G20    29.99R WCI  20
NASHVILLE      CLEAR     35   9  33 NW13G20   30.10R WCI  26
$$

...KEY TO REMARKS...
VSB - VISIBILITY IN MILES
WCI - WIND CHILL INDEX
HX  - HEAT INDEX

$$




USA.gov is the U.S. government's official web portal to all federal, state and local government web resources and services.